Content
SEND FEEDBACK

Daily
Averages
Monthly
Summary
United States of America

WILLIAMSBURG, VIRGINIA


Home > North America > United States > Virginia
Elevation: 105 feet     Latitude: 37 19N     Longitude: 076 43W

WEATHER
 
SELECT A DAY
Number of Records: 270,528;   Date Range: 4/22/03 - 7/26/14
 
SHARE

PRINT THIS DATA

[ ← Previous Day ]
WEATHER ALMANAC - JANUARY 31, 2013
[ Next Day → ]
[ °C ]   °F
Weather ElementAverageHighLow
Temperature51 °F71.6 °F (12:55 am)37.4 °F (10:35 pm)
Dewpoint32.8 °F62.6 °F (1:55 am)17.6 °F (5:55 pm)
Humidity52.5 %88 % (2:15 am)30 % (2:15 pm)
Barometer29.68 in29.99 in (11:15 pm)29.29 in (1:35 am)
Wind Speed18.2 mph32.2 mph (9:35 am)
Wind Gust47.2 mph (1:55 am)
Weather ElementAverage
Visibility9.5 mi
Wind DirectionWSW (263.5 °)

Weather ElementTotal
Precipitation1.18 in
Heating Degree Days10.5 (Base 65)
Growing Degree Days4.5 (Base 50)
Averaged from 68 records on January 31, 2013
WEATHER CONDITIONS BREAKOUT
WIND DIRECTION BREAKOUT
WEATHER BY HOUR - JANUARY 31, 2013
[ °C ]   °F
Local TimeTemperatureDewpointHumidityBarometerVisibilityWind DirectionWind SpeedGust SpeedPrecipitationEventsConditions
12:35 AM69.8 °F60.8 °F73 %29.36 in10.0 miSouth (190°)24.2 mph35.7 mphOvercast
12:55 AM71.6 °F60.8 °F69 %29.33 in10.0 miSouth (180°)20.7 mph41.4 mphOvercast
1:15 AM71.6 °F60.8 °F69 %29.31 in10.0 miSouth (180°)24.2 mph40.3 mphOvercast
1:35 AM71.6 °F60.8 °F69 %29.29 in10.0 miSouth (180°)26.5 mph40.3 mphOvercast
1:55 AM69.8 °F62.6 °F78 %29.30 in4.0 miSSW (200°)23.0 mph47.2 mphOvercast
2:15 AM62.6 °F59.0 °F88 %29.36 in1.8 miWSW (250°)24.2 mph40.3 mph0.29 inOvercast
2:35 AM62.6 °F59.0 °F88 %29.38 in3.0 miWSW (250°)19.6 mph33.4 mph0.34 inOvercast
2:55 AM60.8 °F57.2 °F88 %29.38 in7.0 miWSW (250°)21.9 mph34.5 mph0.39 inOvercast
3:15 AM60.8 °F55.4 °F82 %29.35 in5.0 miWSW (240°)16.1 mph26.5 mph0.03 inOvercast
3:35 AM59.0 °F55.4 °F88 %29.37 in10.0 miSW (230°)15.0 mph27.6 mph0.03 inOvercast
3:55 AM57.2 °F53.6 °F88 %29.36 in10.0 miWSW (240°)15.0 mph23.0 mph0.04 inOvercast
4:15 AM57.2 °F53.6 °F88 %29.37 in10.0 miWSW (240°)11.5 mph25.3 mphOvercast
4:35 AM57.2 °F51.8 °F82 %29.38 in10.0 miSW (230°)16.1 mph34.5 mphOvercast
4:55 AM57.2 °F51.8 °F82 %29.40 in10.0 miWSW (250°)18.4 mph28.8 mphMostly Cloudy
5:15 AM57.2 °F50.0 °F77 %29.42 in10.0 miWSW (240°)13.8 mph31.1 mphMostly Cloudy
5:35 AM57.2 °F48.2 °F72 %29.43 in10.0 miWSW (250°)9.2 mph24.2 mphMostly Cloudy
5:55 AM55.4 °F48.2 °F77 %29.44 in10.0 miWSW (240°)19.6 mph31.1 mphMostly Cloudy
6:15 AM53.6 °F46.4 °F77 %29.49 in3.0 miWest (270°)25.3 mph46.0 mph0.02 inOvercast
6:35 AM51.8 °F44.6 °F76 %29.50 in10.0 miWest (270°)15.0 mph24.2 mph0.04 inOvercast
7:15 AM51.8 °F42.8 °F71 %29.55 in10.0 miWest (270°)19.6 mph27.6 mphScattered Clouds
7:35 AM51.8 °F42.8 °F71 %29.57 in10.0 miWest (270°)16.1 mph24.2 mphClear
7:55 AM50.0 °F41.0 °F71 %29.58 in10.0 miWest (270°)15.0 mph19.6 mphClear
8:15 AM50.0 °F35.6 °F58 %29.60 in10.0 miWest (280°)18.4 mph36.8 mphClear
8:35 AM50.0 °F33.8 °F54 %29.62 in10.0 miWest (270°)15.0 mph29.9 mphClear
8:55 AM48.2 °F33.8 °F58 %29.65 in10.0 miWest (280°)20.7 mph34.5 mphClear
9:15 AM48.2 °F32.0 °F54 %29.66 in10.0 miWest (270°)18.4 mph36.8 mphClear
9:35 AM50.0 °F32.0 °F50 %29.68 in10.0 miWest (280°)32.2 mph38.0 mphClear
9:55 AM51.8 °F30.2 °F44 %29.69 in10.0 miWest (280°)23.0 mph32.2 mphClear
10:15 AM50.0 °F28.4 °F43 %29.70 in10.0 miWest (280°)23.0 mph33.4 mphClear
10:35 AM51.8 °F28.4 °F41 %29.71 in10.0 miWest (280°)23.0 mph32.2 mphClear
10:55 AM51.8 °F26.6 °F38 %29.72 in10.0 miWest (280°)23.0 mph38.0 mphClear
11:15 AM51.8 °F26.6 °F38 %29.73 in10.0 miWest (270°)24.2 mph32.2 mphClear
11:35 AM51.8 °F26.6 °F38 %29.73 in10.0 miWNW (290°)19.6 mph29.9 mphClear
11:55 AM51.8 °F26.6 °F38 %29.74 in10.0 miWest (270°)23.0 mph32.2 mphClear
12:15 PM51.8 °F24.8 °F35 %29.74 in10.0 miWest (280°)20.7 mph33.4 mphClear
12:35 PM51.8 °F24.8 °F35 %29.73 in10.0 miWNW (290°)25.3 mph31.1 mphClear
12:55 PM51.8 °F24.8 °F35 %29.74 in10.0 miWNW (290°)23.0 mph32.2 mphClear
1:15 PM51.8 °F24.8 °F35 %29.73 in10.0 miWest (270°)17.3 mph32.2 mphClear
1:35 PM51.8 °F24.8 °F35 %29.74 in10.0 miWest (270°)26.5 mph32.2 mphScattered Clouds
1:55 PM51.8 °F24.8 °F35 %29.74 in10.0 miWest (270°)16.1 mph33.4 mphClear
2:15 PM51.8 °F21.2 °F30 %29.75 in10.0 miWNW (290°)26.5 mph35.7 mphClear
2:35 PM51.8 °F24.8 °F35 %29.75 in10.0 miWest (280°)20.7 mph26.5 mphClear
2:55 PM51.8 °F21.2 °F30 %29.77 in10.0 miWest (280°)25.3 mph34.5 mphClear
3:15 PM51.8 °F21.2 °F30 %29.78 in10.0 miWest (270°)18.4 mph34.5 mphClear
3:35 PM50.0 °F21.2 °F32 %29.79 in10.0 miWest (280°)17.3 mph31.1 mphScattered Clouds
3:55 PM48.2 °F23.0 °F37 %29.80 in10.0 miWest (270°)16.1 mph29.9 mphMostly Cloudy
4:15 PM50.0 °F21.2 °F32 %29.81 in10.0 miWest (280°)24.2 mph32.2 mphMostly Cloudy
4:35 PM48.2 °F21.2 °F34 %29.82 in10.0 miWest (270°)26.5 mph34.5 mphScattered Clouds
4:55 PM48.2 °F19.4 °F32 %29.84 in10.0 miWest (270°)21.9 mph34.5 mphMostly Cloudy
5:15 PM46.4 °F19.4 °F34 %29.85 in10.0 miWest (270°)21.9 mph31.1 mphScattered Clouds
5:35 PM46.4 °F19.4 °F34 %29.87 in10.0 miWest (280°)26.5 mph34.5 mphClear
5:55 PM44.6 °F17.6 °F34 %29.87 in10.0 miWest (280°)13.8 mph28.8 mphClear
6:15 PM44.6 °F17.6 °F34 %29.89 in10.0 miWest (270°)20.7 mph29.9 mphClear
6:35 PM44.6 °F19.4 °F37 %29.90 in10.0 miWNW (290°)17.3 mph26.5 mphClear
7:15 PM42.8 °F19.4 °F39 %29.93 in10.0 miWNW (300°)13.8 mph23.0 mphClear
7:35 PM42.8 °F19.4 °F39 %29.94 in10.0 miWNW (290°)15.0 mph27.6 mphClear
7:55 PM42.8 °F19.4 °F39 %29.94 in10.0 miWNW (290°)10.4 mph25.3 mphClear
8:15 PM41.0 °F17.6 °F39 %29.95 in10.0 miWest (280°)11.5 mph17.3 mphClear
8:35 PM41.0 °F17.6 °F39 %29.95 in10.0 miWest (280°)11.5 mph18.4 mphClear
8:55 PM39.2 °F17.6 °F42 %29.95 in10.0 miWest (280°)9.2 mphClear
9:15 PM39.2 °F17.6 °F42 %29.96 in10.0 miWest (280°)11.5 mph17.3 mphClear
9:35 PM39.2 °F19.4 °F45 %29.96 in10.0 miWest (280°)8.1 mphClear
9:55 PM39.2 °F19.4 °F45 %29.96 in10.0 miWest (260°)5.8 mphClear
10:15 PM39.2 °F19.4 °F45 %29.97 in10.0 miWSW (250°)5.8 mphClear
10:35 PM37.4 °F19.4 °F48 %29.97 in10.0 miWest (260°)5.8 mphClear
10:55 PM37.4 °F19.4 °F48 %29.98 in10.0 miWest (260°)8.1 mphClear
11:15 PM37.4 °F21.2 °F52 %29.99 in10.0 miWest (270°)9.2 mph16.1 mphClear
11:35 PM37.4 °F21.2 °F52 %29.99 in10.0 miWest (270°)9.2 mphClear
Hourly data recorded from KJGG, located miles away from Williamsburg, Virginia







STORIES FROM OUR PARTNERS